This is the latest recevied weather packets stored in our database for station/object K6TTR. If no packets are shown the sender has not sent any weather packets the latest 10 day(s).
| Time | Temp. | Humidity | Pressure | Rain* | Wind** | Luminosity | Snow |
|---|---|---|---|---|---|---|---|
| 1778101416 | 23.33° C | 34% | 1021.1 hPa | 0 mm | - | 1002 W/m² | - |
| 1778101121 | 23.33° C | 33% | 1021.2 hPa | 0 mm | - | 1090 W/m² | - |
| 1778100828 | 23.33° C | 32% | 1021.2 hPa | 0 mm | - | 1021 W/m² | - |
| 1778100514 | 23.33° C | 34% | 1021.1 hPa | 0 mm | - | 1002 W/m² | - |
| 1778100217 | 23.33° C | 35% | 1021.2 hPa | 0 mm | - | 1004 W/m² | - |
| 1778099925 | 23.33° C | 34% | 1021.3 hPa | 0 mm | - | 1072 W/m² | - |
| 1778099612 | 23.33° C | 36% | 1021.4 hPa | 0 mm | - | 1044 W/m² | - |
| 1778099318 | 22.78° C | 39% | 1021.4 hPa | 0 mm | - | 1016 W/m² | - |
| 1778099022 | 22.78° C | 38% | 1021.3 hPa | 0 mm | - | 926 W/m² | - |
| 1778098729 | 22.78° C | 37% | 1021.3 hPa | 0 mm | - | 926 W/m² | - |
| 1778098413 | 22.78° C | 40% | 1021.4 hPa | 0 mm | - | 926 W/m² | - |
| 1778098122 | 22.78° C | 40% | 1021.4 hPa | 0 mm | - | 1018 W/m² | - |
| 1778097826 | 22.78° C | 40% | 1021.4 hPa | 0 mm | - | 998 W/m² | - |
| 1778097511 | 22.78° C | 41% | 1021.4 hPa | 0 mm | - | 995 W/m² | - |
| 1778097216 | 22.22° C | 44% | 1021.4 hPa | 0 mm | - | 1056 W/m² | - |
| 1778096920 | 21.67° C | 45% | 1021.6 hPa | 0 mm | - | 1056 W/m² | - |
| 1778096626 | 21.67° C | 45% | 1021.5 hPa | 0 mm | - | 1083 W/m² | - |
| 1778096315 | 21.67° C | 48% | 1021.7 hPa | 0 mm | - | 991 W/m² | - |
| 1778096019 | 21.67° C | 47% | 1021.7 hPa | 0 mm | - | 1004 W/m² | - |
| 1778095726 | 21.67° C | 46% | 1021.7 hPa | 0 mm | - | 976 W/m² | - |
| 1778095412 | 21.67° C | 47% | 1021.7 hPa | 0 mm | - | 969 W/m² | - |
| 1778095117 | 21.11° C | 46% | 1021.8 hPa | 0 mm | - | 970 W/m² | - |
| 1778094822 | 21.11° C | 48% | 1021.8 hPa | 0 mm | - | 969 W/m² | - |
| 1778094528 | 20.56° C | 51% | 1021.7 hPa | 0 mm | - | 965 W/m² | - |
| 1778094213 | 20.56° C | 52% | 1021.8 hPa | 0 mm | - | 958 W/m² | - |
* Rain latest hour (hover to see other rain measurements)
** Current wind speed in m/s (hover to see current wind gust speed)